Other Surface Observations
Issued by NWS

Home | Current Version | Previous Version | Text Only | Print | Product List | Glossary On
Versions: 1 2 3 4 5 6 7 8 9 10 11 12 13 14 15 16 17 18 19 20 21 22 23 24 25 26 27 28 29 30 31 32 33 34 35 36 37 38 39 40 41 42 43 44 45 46 47 48 49 50
565
SXUS52 KTAE 252218
OSOTAE
OSOTAE
North Florida/South Alabama/Southwest Georgia Weather Roundup
National Weather Service Tallahassee Florida
600 PM EDT WED MAY 25 2016

Note: "fair" indicates few or no clouds below 12,000 feet with no
significant weather and/or obstructions to visibility.

!FLZ017-115-028-034-025-252300
...North Florida...

CITY           SKY/WX    TMP DP  RH WIND       PRES   REMARKS
TALLAHASSEE    PTSUNNY   88  60  38 S8        30.15F
APALACHICOLA   CLOUDY    81  73  76 SE8       30.16F
PERRY          MOSUNNY   86  68  56 SW9       30.16S
CROSS CITY       N/A     91  54  28 NE5       30.14F
JACKSONVILLE   MOSUNNY   84  55  36 E13       30.18F
$$

!FLZ112-006-005-002-011-252300
...Florida Panhandle...

CITY           SKY/WX    TMP DP  RH WIND       PRES   REMARKS
MARIANNA       CLOUDY    87  64  46 S7        30.14F
BONIFAY        CLOUDY    85  68  56 SW9       30.15S
PANAMA CITY NW FAIR      82  71  69 S9        30.15S
TYNDALL AFB    CLOUDY    81  72  72 S13       30.15F
TYND DRONE APT FAIR      82  73  75 S13       30.15F
DE FUNIAK SPR  MOCLDY    81  69  67 S5        30.17S
EGLIN AFB      PTSUNNY   82  70  66 S9        30.15F
DESTIN         MOSUNNY   84  74  71 SE9       30.15F HX  91
HURLBURT       SUNNY     80  70  70 S10       30.14F
CRESTVIEW      MOSUNNY   86  66  51 S12       30.16F
PENSACOLA      SUNNY     83  66  56 SE9       30.14F
$$

!ALZ063-066-252300
...South Alabama...

CITY           SKY/WX    TMP DP  RH WIND       PRES   REMARKS
DOTHAN         MOSUNNY   86  59  39 SE5       30.17F
OZARK CAIRNS   PTSUNNY   88  62  41 SE5       30.14F
FT RUCKER HELI PTSUNNY   87  62  43 CALM      30.13F
RUCKER HELI 3  FAIR      87  60  40 S10       30.16F
RUCKER HELI 2  NOT AVBL
FLORALA APT    MOSUNNY   85  62  46 S5        30.16F
ANDALUSIA      MOSUNNY   89  64  43 S5        30.14F HX  90
TROY           MOSUNNY   86  64  47 S5        30.16F
EUFALA         FAIR      91  61  36 S7        30.13F HX  91
MOBILE         PTSUNNY   84  61  45 SE12      30.15F
$$

!GAZ120>161-252300
...Southwest and South Central Georgia...

CITY           SKY/WX    TMP DP  RH WIND       PRES   REMARKS
THOMASVILLE    FAIR      86  61  42 S3        30.17F
BAINBRIDGE     MOSUNNY   86  63  45 S5        30.15F
MOODY AFB      PTSUNNY   89  54  30 VRB5      30.16F
VALDOSTA       SUNNY     88  57  34 VRB3      30.16F
MOULTRIE       SUNNY     88  57  35 SE6       30.16F
BLAKELY        MOSUNNY   90  63  40 CALM      30.15F HX  90
ALBANY         MOSUNNY   89  54  30 S6        30.16F
TIFTON         FAIR      85  57  37 SE5       30.16F
FITZGERALD     FAIR      88  56  33 SE3       30.19F
CORDELE        FAIR      90  56  30 SW7       30.16F
AMERICUS       FAIR      88  52  29 S5        30.17F
HOMERVILLE     FAIR      88  55  33 S3        30.17F
$$

!GMZ750-755-770-775-252300
...Coastal and Buoy Obs...

STATION/POSITION TIME  TEMP    WIND        PRES    VSBY  WAVE
                       AIR SEA DIR/SP/G                  HT/PER
                 (UTC) (F)     (DEG/KT/KT) (MB)    (MI)  (FT/S)
KEATON BEACH     2200   79     260/  8/  9 1021.0F
CEDAR KEY        2200   84     290/  3/  4 1021.0F
C TOWER          2200   77     130/  7/  7 1022.0F
APALACHICOLA BUO 2150   79 79  110/  6/  8 1020.8F         2/ 5
PANAMA CITY BUOY 2150   80 81  110/  8/  8 1021.0F         1/ 3
MOBILE BUOY      2200   78 78  100/  8/ 10 1020.4F
ORANGE BCH AL BU 2150   78 80  130/  6/  8 1020.4F         1/ 3
$$




USA.gov is the U.S. government's official web portal to all federal, state and local government web resources and services.